CAPE
0 0 0 0 0 0 0 0 0 0 0 0 0 0 0 0 0 0 0 0 0 0
0 0 0 0 0 0 0 0 0 0 0 0 0 0 0 0 0 0 0 0 0 0
0 0 0 0 0 0 0 0 0 0 0 0 0 0 0 0 0 0 0 0 0 0
0 0 0 0 0 0 0 0 0 0 0 0 0 0 0 0 0 0 0 0 0 0
0 0 0 0 0 0 0 0 0 0 0 0 0 0 0 0 0 0 0 0 0 0
0 0 0 0 0 0 0 0 0 0 0 0 0 0 0 0 0 0 0 0 0 0
0 0 0 0 0 0 0 0 0 0 0 0 0 0 0 0 0 0 0 0 0 0
0 0 0 0 0 0 0 0 0 0 0 0 0 0 0 0 0 0 0 0 0 0
0 0 0 0 0 0 0 0 0 0 0 0 0 0 0 0 0 0 0 0 0 0
0 0 0 0 0 0 0 0 0 0 0 0 0 0 0 0 0 0 0 0 0 0
0 0 0 0 0 0 0 0 0 0 0 0 0 0 0 0 0 0 0 0 0 0
0 0 0 0 0 0 0 0 0 0 0 0 0 0 0 0 0 0 0 0 0 0
0 0 0 0 0 0 0 0 0 0 0 0 0 0 0 0 0 0 0 0 0 0
0 0 0 0 0 0 0 0 0 0 0 0 0 0 0 0 0 0 0 0 0 0
CIN
0 0 0 0 0 0 0 0 0 0 0 0 0 0 0 0 0 0 0 0 0 0
0 0 0 0 0 0 0 0 0 0 0 0 0 0 0 0 0 0 0 0 0 0
0 0 0 0 0 0 0 0 0 0 0 0 0 0 0 0 0 0 0 0 0 0
0 0 0 0 0 0 0 0 0 0 0 0 0 0 0 0 0 0 0 0 0 0
0 0 0 0 0 0 0 0 0 0 0 0 0 0 0 0 0 0 0 0 0 0
0 0 0 0 0 0 0 0 0 0 0 0 0 0 0 0 0 0 0 0 0 0
0 0 0 0 0 0 0 0 0 0 0 0 0 0 0 0 0 0 0 0 0 0
0 0 0 0 0 0 0 0 0 0 0 0 0 0 0 0 0 0 0 0 0 0
0 0 0 0 0 0 0 0 0 0 0 0 0 0 0 0 0 0 0 0 0 0
0 0 0 0 0 0 0 0 0 0 0 0 0 0 0 0 0 0 0 0 0 0
0 0 0 0 0 0 0 0 0 0 0 0 0 0 0 0 0 0 0 0 0 0
0 0 0 0 0 0 0 0 0 0 0 0 0 0 0 0 0 0 0 0 0 0
0 0 0 0 0 0 0 0 0 0 0 0 0 0 0 0 0 0 0 0 0 0
0 0 0 0 0 0 0 0 0 0 0 0 0 0 0 0 0 0 0 0 0 0
Wind_Speed
8 5 5 6 5 5 5 5 4 4 4 4 4 3 4 1 3 4 3 4 3 2
7 8 8 8 6 5 5 5 5 4 3 3 4 3 4 2 3 4 2 3 2 2
8 8 7 7 7 7 6 5 6 4 3 3 4 3 3 2 3 4 2 1 3 2
7 8 7 7 7 7 6 6 5 5 3 4 4 3 3 2 3 3 3 3 2 2
8 8 7 6 7 7 7 6 6 4 3 3 4 3 2 1 3 4 4 5 4 3
8 7 8 8 8 7 7 7 5 5 4 4 3 2 2 5 5 5 5 4 4 5
9 8 7 7 7 7 7 7 6 5 5 4 4 4 4 5 5 4 5 6 6 6
8 8 8 7 7 7 7 6 6 6 5 5 4 3 6 5 3 2 4 6 6 6
10 9 9 7 7 7 7 6 6 6 6 5 3 11 10 7 3 0 3 5 6 6
12 11 8 8 7 8 8 6 7 7 7 7 6 13 12 9 3 1 4 5 6 4
13 11 9 9 8 7 6 7 6 7 7 6 5 14 12 9 3 3 4 5 3 2
13 12 11 11 9 7 7 6 6 5 7 7 5 14 13 8 4 3 4 4 3 4
12 13 12 11 9 6 5 6 6 6 6 8 7 16 15 10 3 3 3 3 4 7
12 13 12 9 6 6 6 6 6 7 6 7 7 10 17 15 5 4 3 2 3 3
Wind_Direction
127 125 111 121 119 121 130 134 125 106 111 108 99 58 41 41 104 80 54 34 57 42
134 129 131 125 123 121 131 132 130 129 129 123 106 88 45 61 75 81 53 42 42 47
127 131 133 122 131 134 133 127 141 141 148 138 120 100 70 44 31 73 17 78 44 14
141 137 135 135 144 151 143 148 147 153 171 159 133 110 87 37 97 54 8 352 7 347
136 135 138 147 152 157 155 158 155 157 176 150 126 118 136 130 52 45 15 342 4 334
143 151 163 163 158 161 155 165 165 162 170 151 147 179 223 101 70 30 352 346 330 310
160 167 173 169 163 164 165 159 168 179 174 175 195 213 126 110 70 15 343 325 314 300
166 167 172 172 169 166 164 169 182 174 184 202 198 193 141 124 119 31 323 309 305 298
170 178 180 173 173 165 171 178 180 188 196 210 197 155 155 153 154 43 302 298 303 303
179 185 176 175 173 179 182 184 200 203 198 213 177 169 167 160 157 236 276 281 285 299
181 182 178 181 185 186 180 191 195 201 205 208 193 176 175 172 182 239 274 283 301 38
177 181 182 191 187 185 177 187 195 189 199 193 165 174 176 177 209 244 292 312 355 348
177 184 189 186 187 177 175 189 185 202 197 188 176 184 188 188 190 225 252 293 318 319
183 187 186 177 169 175 177 172 181 188 200 200 180 187 194 196 188 204 213 222 263 270